Location: Newark
(47.5989°N, 4.6950°E)
Time: 19:26:02
(UTC+00:00)

Envisat - Pass Details

Date: 19 November 2019
Orbit: 764 x 766 km, 98.1° (Epoch: 05 December)

Event Time Altitude Azimuth Distance (km) Brightness Sun altitude
Rises 18:56:27 0° 209° (SSW) 3,221 6.6 -29.3°
Reaches altitude 10° 18:59:30 10° 229° (SW) 2,300 6.0 -29.8°
Maximum altitude 19:02:52 18° 271° (W) 1,831 5.7 -30.4°
Drops below altitude 10° 19:06:15 10° 313° (NW) 2,311 6.1 -31.0°
Sets 19:09:20 0° 332° (NNW) 3,243 6.7 -31.5°
